Location: Azul
(36.7830°S, 59.8500°W)
Time: 18:25:29
(UTC-03:00)

First-Move - Pass Details

Date: 27 October 2021
Orbit: 575 x 664 km, 97.6° (Epoch: 07 December)

Event Time Altitude Azimuth Distance (km) Brightness Sun altitude
Rises 04:38:53 0° 17° (NNE) 2,917 ? -15.6°
Reaches altitude 10° 04:41:03 10° 18° (NNE) 2,031 ? -15.3°
Maximum altitude 04:45:29 77° 103° (ESE) 678 ? -14.5°
Drops below altitude 10° 04:50:05 10° 189° (S) 2,103 ? -13.7°
Sets 04:52:21 0° 190° (S) 3,031 ? -13.3°
